Cloud_Cover
0 0 3 0 0 33 11 100 100 92 100 100 100 100 50 0 0 8 16 23 20 20 25 14 1 0 1 0 0 0 0 0 0 0 0 0 0 34 100 100 31 100 57 42 80 76 88
0 0 0 0 0 0 0 2 100 100 100 100 100 100 100 1 0 0 2 24 25 21 19 12 0 34 0 0 0 0 0 0 0 0 0 0 0 6 77 88 93 100 22 8 74 44 97
0 0 0 0 4 5 5 80 100 100 100 100 100 100 100 5 0 1 6 8 25 1 0 0 0 0 0 0 0 0 0 0 0 0 0 0 0 0 5 14 8 5 11 10 77 74 63
5 5 46 25 59 5 36 100 100 100 100 100 100 100 100 0 0 2 5 14 0 0 0 0 2 0 0 0 0 0 0 0 0 0 0 0 0 0 0 38 7 43 23 97 81 90 86
5 5 35 27 19 20 96 100 76 74 100 100 100 63 100 0 3 0 0 0 0 0 0 6 8 0 0 0 0 0 0 0 0 0 0 0 0 0 0 0 68 18 83 100 100 52 68
6 25 24 38 81 99 100 92 54 70 80 100 100 100 100 6 0 0 0 10 0 30 21 0 0 0 0 0 0 0 0 0 0 0 0 0 0 0 0 1 71 80 92 100 97 99 67
25 40 100 34 99 91 100 99 99 100 89 100 100 100 88 0 0 0 33 0 0 0 0 0 0 0 0 0 0 0 0 0 0 0 0 0 0 0 0 1 99 26 100 92 100 84 99
100 90 73 33 83 100 100 100 95 91 100 97 100 100 58 0 0 1 10 0 0 0 0 0 0 0 0 0 0 0 0 0 0 0 0 0 0 0 0 0 58 85 75 84 100 100 100
100 85 94 97 100 100 94 89 100 99 100 58 96 100 0 0 7 3 0 0 0 0 0 0 0 0 0 0 0 0 0 0 0 0 0 0 0 0 0 0 0 5 64 96 91 100 100
86 95 92 74 100 100 100 100 100 100 100 86 91 13 0 1 9 0 0 0 0 0 0 0 0 0 0 0 4 5 1 0 0 0 0 0 0 0 0 0 0 0 3 100 43 43 96
69 50 54 98 100 100 100 100 100 99 100 99 53 26 0 0 0 0 0 0 0 0 0 0 0 3 50 5 11 24 5 0 0 0 0 0 0 0 0 0 0 0 8 6 4 27 97
38 70 100 100 99 100 100 100 99 50 100 100 59 5 5 0 0 0 0 0 0 0 2 0 0 0 50 98 99 79 6 2 0 0 0 0 0 0 0 0 0 0 3 3 0 4 54
100 100 100 99 87 90 100 99 68 67 100 100 11 0 13 0 0 0 0 0 0 0 0 0 0 3 2 100 100 100 100 42 2 0 0 0 0 0 0 0 0 0 0 0 0 0 1
100 100 100 100 93 100 100 100 99 92 100 50 0 31 0 0 0 3 0 0 0 0 0 0 1 52 54 97 100 100 100 96 6 2 0 0 0 0 0 0 0 0 0 0 0 0 0
100 100 100 100 100 100 100 100 100 100 37 5 17 0 5 0 0 15 4 0 5 5 0 3 5 73 30 89 100 100 100 95 7 5 0 0 0 0 0 0 0 0 0 0 0 5 5
100 100 100 100 100 100 100 100 100 78 12 5 5 5 5 5 5 24 5 5 5 5 2 3 5 5 51 100 100 100 100 100 100 68 4 0 0 0 0 0 0 0 0 0 0 0 3
100 100 100 100 100 100 100 100 100 89 4 5 5 5 5 5 11 100 38 37 5 4 3 5 5 5 38 48 100 100 100 100 100 74 5 2 0 0 0 0 0 0 0 0 0 0 0
100 93 100 100 100 100 93 87 100 100 5 9 5 5 15 26 63 100 79 99 7 33 5 5 5 78 18 48 100 100 100 97 100 99 18 0 0 0 0 0 0 0 0 0 0 0 0
97 100 99 100 100 100 100 100 100 89 65 93 71 31 94 84 99 100 100 100 99 100 100 83 5 5 62 100 52 100 99 100 100 100 100 100 89 32 5 0 0 0 0 0 0 0 5
92 87 96 100 100 100 100 100 94 58 60 67 62 99 82 91 100 100 100 100 100 100 91 62 5 5 76 94 88 100 100 100 100 100 100 100 100 100 100 44 0 0 0 0 0 0 0
87 99 92 96 82 74 91 100 100 71 15 75 64 82 68 87 100 100 100 100 100 100 90 5 5 5 5 16 61 100 59 100 100 100 100 100 100 100 100 13 0 5 4 0 0 0 0
100 98 98 100 99 79 99 100 100 95 58 68 61 100 100 100 100 100 100 100 100 100 100 98 59 86 100 87 20 60 99 100 100 100 100 100 100 87 100 99 26 0 0 0 0 0 0
100 100 100 99 99 75 66 75 100 100 100 88 100 100 98 100 100 100 100 100 100 100 100 98 100 100 100 100 95 63 9 41 100 100 100 100 100 100 100 100 92 5 0 4 0 0 0
100 100 100 100 100 100 88 90 76 97 100 100 100 99 100 100 100 100 100 100 100 100 100 100 100 100 100 100 100 100 54 26 91 100 100 100 100 100 100 99 100 100 67 36 13 2 4
100 100 100 100 100 100 100 100 100 100 100 100 100 100 100 100 100 100 100 100 100 100 100 100 100 100 100 100 100 100 100 63 5 89 100 100 100 100 95 23 5 99 72 1 4 4 76
100 100 100 100 98 88 100 100 100 100 100 100 100 100 100 100 100 100 100 100 100 100 100 100 100 100 100 100 100 100 90 98 58 9 5 40 100 100 100 100 40 99 1 0 0 0 0
100 100 100 100 98 100 100 100 100 100 100 100 100 100 100 100 100 100 100 100 100 100 100 100 100 100 100 100 100 100 60 51 5 14 4 2 6 31 96 100 100 99 42 2 0 1 48
100 100 100 100 100 100 98 100 100 100 100 100 100 100 100 100 100 100 100 100 100 100 100 100 100 100 100 100 100 100 45 20 5 5 5 3 3 4 0 0 40 1 2 2 4 2 22
100 98 91 100 100 100 99 100 100 100 100 100 100 100 100 100 100 100 100 100 100 100 100 100 100 100 100 100 100 72 20 5 4 5 5 4 1 0 0 52 0 0 0 6 1 0 22